Find Kuiper-00158

NORAD ID: 65776 Int'l Des: 2025-217 Owner: KUIP Country: US Constellation: amazon-leo operational
LEOCIRCULAR

当前视图

正在加载3D地球...

关于 Kuiper-00158

正在加载描述...

即将过境

Passes for default location (London). Set your location on the main map for personalized predictions.

高度历史

Loading altitude history...

两行轨道根数

1 65776U 25217Q 26149.58223597 .00005327 00000-0 70486-3 0 9996
2 65776 51.8976 47.1537 0001043 41.8145 318.2897 14.81260914 36831
Epoch: May 29, 2026 • Age: 11 hours

当前状态

高度 640.3 km
速度 7.54 km/s
星下点 -42.94°S, 12.64°E
发射日期 Sep 25, 2025
运行时间 0.6 years
类型 internet

技术详情

分类 Payload
质量 490.00 kg
干质量 490.00 kg
总质量 490.00 kg
长度 1.80 m
直径 0.70 m
跨度 5.00 m
形状 Box + 2 pan
制造商 KUIP
平台类型 Kuiper
阶段状态 In Orbit
所有者/国家 KUIP/US

Most Searched